Location: Angola Beach Mobile Home Park
(38.6532°N, 75.1646°W)
Time: 12:31:20
(UTC+00:00)

Daily predictions for brighter satellites

Satellite Brightness Start Highest point End
(mag) Time Altitude Azimuth Time Altitude Azimuth Time Altitude Azimuth
Cosmos 2292 Rocket 4.4 21:58:30 10° S 22:03:43 79° E 22:10:36 10° N
Cosmos 1238 Rocket 4.3 22:00:59 10° SSW 22:04:46 37° W 22:08:02 10° NNW
CZ-4B R/B 4.3 22:01:58 10° SE 22:05:09 31° ENE 22:08:21 10° N
ATLAS 5 CENTAUR R/B 4.2 22:02:45 10° NW 22:07:54 38° WSW 22:14:01 10° S
BREEZE-M DEB (TANK) 3.0 22:07:19 10° WNW 22:08:53 18° NNW 22:10:23 10° NNE
Cosmos 2263 Rocket 2.2 22:03:44 10° S 22:09:14 68° ESE 22:14:47 10° NNE
Cosmos 1844 Rocket 4.4 22:09:21 10° ESE 22:11:13 12° E 22:13:05 10° ENE
Meteor 1-31 Rocket 3.1 22:08:33 10° SE 22:11:59 38° ENE 22:15:26 10° N
Cosmos 2227 Rocket 3.6 22:07:12 10° SW 22:12:24 37° WNW 22:17:37 10° N
Cosmos 1544 2.7 22:15:17 10° N 22:18:32 80° E 22:21:46 10° S
CORIOLIS 4.1 22:13:40 10° SSE 22:18:55 63° ENE 22:24:13 10° N
CZ-4B R/B 4.2 22:15:54 10° SE 22:20:23 32° ENE 22:24:47 10° N
ERS-2 3.7 22:18:22 10° SSW 22:21:01 31° W 22:23:41 10° NW
Lacrosse 4 Rocket 3.2 22:18:47 10° NNE 22:21:01 14° NE 22:22:58 11° ENE
Tiangong -1.6 22:18:05 10° WNW 22:21:12 59° SSW 22:24:18 10° ESE
Cosmos 2344 3.8 22:21:10 10° S 22:28:54 51° ESE 22:35:52 10° NE
USA 308 1.0 22:27:19 10° NW 22:29:08 39° NE 22:29:56 21° E
BREEZE-M DEB (TANK) 4.3 22:31:39 10° S 22:35:06 31° ESE 22:42:30 13° ENE
USA 307 4.3 22:35:04 10° NNW 22:37:41 17° NNE 22:38:51 15° NE
Cosmos 1818 4.1 22:33:19 10° S 22:38:17 38° ESE 22:42:25 14° NE
Cosmos 1812 Rocket 4.0 22:34:22 10° SSE 22:38:23 40° E 22:42:26 10° NNE
Cosmos 1076 Rocket 3.7 22:34:55 10° N 22:39:16 78° W 22:43:35 10° S
SL-16 R/B 2.5 22:35:23 10° NNW 22:41:03 71° WSW 22:46:39 10° SSE
ATLAS CENTAUR R/B 3.6 22:38:22 10° NNW 22:42:50 35° NE 22:50:49 10° ESE
Cosmos 1602 3.6 22:40:48 10° N 22:44:29 62° E 22:48:10 10° SSE
ISS -2.6 22:43:25 10° NNW 22:46:18 26° NNE 22:47:13 23° NE
Cosmos 1666 2.4 22:43:40 10° N 22:47:13 88° E 22:50:44 10° S
Hubble Space Telescope 3.3 22:45:05 10° SW 22:47:19 14° SSW 22:49:33 10° SSE
Meteor 2-2 Rocket 4.5 22:41:54 10° SSE 22:47:20 48° E 22:52:53 10° NNE
Cosmos 1269 Rocket 4.5 22:45:37 10° NNW 22:50:52 66° WSW 22:56:05 10° S
ATLAS 2AS CENTAUR R/B 4.1 22:46:50 10° N 22:51:05 17° NNE 22:52:39 16° NE
SL-08 R/B 3.7 22:50:45 12° NNE 22:54:41 40° E 22:59:01 10° S
Cosmos 1943 3.5 22:49:28 10° N 22:54:51 44° ENE 23:00:12 10° SE
Cosmos 44 3.4 22:50:50 10° NNW 22:56:13 84° ENE 23:01:17 10° SSE
ADEOS 4.0 22:52:48 10° SE 22:57:32 37° ENE 23:02:18 10° N
Cosmos 1023 Rocket 4.4 23:02:01 10° N 23:07:06 58° ENE 23:12:06 10° SSE
COSMO-SKYMED 1 2.5 23:04:07 10° NNE 23:08:30 83° ESE 23:12:49 10° S
Cosmos 1933 3.5 23:07:14 10° SSE 23:11:05 48° E 23:12:16 35° NE
USA 276 3.6 23:09:40 10° WNW 23:11:33 19° NNW 23:11:36 19° NNW
Cosmos 1844 4.2 23:08:08 10° S 23:13:26 38° ESE 23:15:14 31° ENE
Helios 1A 3.9 23:11:22 10° N 23:15:22 47° WNW 23:19:20 10° SSW
Cosmos 1420 Rocket 4.4 23:11:20 10° S 23:16:08 39° ESE 23:17:14 35° ENE
Meteor 1-25 Rocket 4.1 23:10:36 10° N 23:16:16 72° E 23:21:49 10° SSE
Radarsat Rocket 3.8 23:13:32 10° SSE 23:19:21 82° ENE 23:25:18 10° NNW
Lacrosse 5 1.9 23:16:11 10° SSW 23:21:08 59° SE 23:22:38 41° ENE
Cosmos 1624 Rocket 4.4 23:16:47 10° S 23:21:37 39° ESE 23:22:06 38° E
Cosmos-2242 4.3 23:21:41 10° SSW 23:25:47 42° W 23:29:55 10° N
Meteor 1-26 Rocket 4.3 23:21:27 10° SSE 23:26:42 50° E 23:28:49 33° NE
USA 234 4.2 23:25:42 17° NNE 23:30:14 39° NNW 23:36:10 10° W
Cosmos 2026 Rocket 3.9 23:26:50 10° S 23:33:02 89° E 23:39:23 10° N
Cosmos 1140 Rocket 3.4 23:28:18 10° NNW 23:33:29 84° WSW 23:38:37 10° SSE
CZ-2C R/B 2.8 23:32:25 10° WSW 23:33:34 16° SW 23:33:34 16° SW
USA 305 4.3 23:32:04 10° NNW 23:33:52 22° N 23:33:52 22° N
Cosmos 2221 3.1 23:31:45 10° S 23:34:41 40° SSE 23:34:41 40° SSE
SL-8 R/B 4.0 23:39:20 10° NW 23:43:40 52° N 23:43:40 52° N
YAOGAN 3 4.4 23:41:54 10° SSE 23:46:12 89° W 23:50:32 10° NNW
Cosmos 1092 Rocket 4.2 23:40:37 10° SSW 23:46:42 69° W 23:52:50 10° N
Cosmos 1844 Rocket 2.6 23:48:43 10° SSW 23:54:16 81° WNW 23:55:45 51° N
Tiangong 1.0 23:56:22 10° WSW 23:57:27 11° SW 23:57:47 11° SSW
